Regional Weather Roundup
Issued by NWS Midland/Odessa, TX

Home | Current Version | Previous Version | Text Only | Print | Product List | Glossary On
Versions: 1 2 3 4 5 6 7 8 9 10 11 12 13 14 15 16 17 18 19 20 21 22 23 24 25 26 27 28 29 30 31 32 33 34 35 36 37 38 39 40 41 42 43 44 45 46 47 48 49 50
000
ASUS44 KMAF 211010
RWRMAF
MIDLAND AREA WEATHER ROUNDUP
NATIONAL WEATHER SERVICE MIDLAND TX
400 AM CST TUE NOV 21 2017

...IN SOUTHWEST TEXAS AND SOUTHEAST NEW MEXICO...

CITY           SKY/WX    TMP DP  RH WIND       PRES   REMARKS
ALPINE         CLOUDY    60  16  18 S5        30.02F
ANDREWS        FAIR      46  24  41 W10       29.84F
ARTESIA        CLOUDY    50  18  27 VRB5G14   29.88S
BIG SPRING     CLOUDY    45  34  65 S8        29.84F
CARLSBAD       CLOUDY    57  21  24 W8        29.87R
DRYDEN           N/A     43  33  68 CALM      29.88F
FORT STOCKTON  CLOUDY    54  21  27 SW14      29.87F
GUAD PASS      CLOUDY    48  21  34 SW18      30.02R
HOBBS          CLOUDY    54  16  22 NW15G21   29.86S
LAMESA         FAIR      41  25  52 W8        29.82S WCI  36
MARFA          CLOUDY    53  18  25 W12       30.03F
MIDLAND AIRPK  CLOUDY    52  32  46 SW7       29.83F
MIDLAND INTL   CLOUDY    50  32  50 SW10      29.83F
ODESSA           N/A     46  31  55 W5        29.84F
PECOS          CLOUDY    50  26  38 NE8       29.86R
PRESIDIO       FAIR      48  26  41 N5        30.00F
SEMINOLE       CLOUDY    51  17  25 W12G18    29.85R
SNYDER         CLOUDY    43  33  68 S7        29.80F WCI  39
WINK           CLOUDY    38  28  67 NE6       29.86S WCI  33
$$
...OTHER STATIONS IN TEXAS...

CITY           SKY/WX    TMP DP  RH WIND       PRES   REMARKS
ABILENE        CLOUDY    51  36  56 SW15G23   29.78F
AMARILLO       CLOUDY    46  14  27 NW13      29.84R
AUSTIN         PTCLDY    49  47  93 SE3       29.91F
BROWNSVILLE    PTCLDY    60  59  96 CALM      29.90F FOG
CORPUS CHRISTI CLOUDY    57  56  96 CALM      29.90F
DALLAS FTW     MOCLDY    54  45  71 S14       29.82F
DEL RIO        CLOUDY    48  46  93 E3        29.91R
EL PASO        MOCLDY    49  21  33 W7        30.00F
HOUSTON INT    CLOUDY    55  51  86 SE6       29.93F
LUBBOCK        CLOUDY    46   9  22 NW13      29.80R
SAN ANGELO     CLOUDY    52  36  54 SW13      29.85S
SAN ANTONIO    MOCLDY    54  48  80 CALM      29.92F
WACO           PTCLDY    51  48  89 SE8       29.89F
WICHITA FALLS  MOCLDY    38  31  76 S6        29.77S WCI  33
$$
...OTHER LOCATIONS IN NEW MEXICO...

CITY           SKY/WX    TMP DP  RH WIND       PRES   REMARKS
ALAMOGORDO     CLOUDY    43  10  26 N10       30.05S WCI  37
ALBUQUERQUE    CLOUDY    49   0  13 N10       30.12S
CANNON AFB     CLOUDY    49   2  14 NW13      29.89R
CLOVIS         CLOUDY    47   7  19 NW13      29.87R
HOLLOMAN AFB   CLOUDY    37  11  34 N8        30.07S WCI  30
ROSWELL        CLOUDY    44  17  33 E7        29.90R
RUIDOSO        CLOUDY    52  -4  10 NW21G35   30.08R
SANTA FE       CLOUDY    41   1  18 N15       30.09F WCI  33
TRUTH OR CONSE PTCLDY    52  -3  10 NW7       30.08R
TUCUMCARI      CLOUDY    40  10  29 W9        29.87R WCI  34
$$




USA.gov is the U.S. government's official web portal to all federal, state and local government web resources and services.